Time,TemperatureF,DewpointF,PressureIn,WindDirection,WindDirectionDegrees,WindSpeedMPH,WindSpeedGustMPH,Humidity,HourlyPrecipIn,Conditions,Clouds,dailyrainin,SoftwareType,DateUTC
2013-05-02 00:01:00,56.7,51.6,30.07,NNE,19,1.0,1.0,83,0.00,,,0.00,Wunderground v.1.15,2013-05-02 04:01:00,
2013-05-02 00:03:00,56.7,51.6,30.07,North,355,1.0,1.0,83,0.00,,,0.00,Wunderground v.1.15,2013-05-02 04:03:00,
2013-05-02 00:05:00,56.7,51.6,30.07,NNE,15,1.0,1.0,83,0.00,,,0.00,Wunderground v.1.15,2013-05-02 04:05:00,
2013-05-02 00:10:00,56.6,51.5,30.07,SSE,166,1.0,2.0,83,0.00,,,0.00,Wunderground v.1.15,2013-05-02 04:10:00,
2013-05-02 00:13:00,56.6,51.5,30.07,WSW,253,1.0,2.0,83,0.00,,,0.00,Wunderground v.1.15,2013-05-02 04:13:00,
2013-05-02 00:18:00,56.5,51.4,30.07,SW,232,1.0,2.0,83,0.00,,,0.00,Wunderground v.1.15,2013-05-02 04:18:00,
2013-05-02 00:24:00,56.5,51.4,30.07,WNW,302,1.0,3.0,83,0.00,,,0.00,Wunderground v.1.15,2013-05-02 04:24:00,
2013-05-02 00:30:00,56.5,51.4,30.08,SE,142,2.0,3.0,83,0.00,,,0.00,Wunderground v.1.15,2013-05-02 04:30:00,
2013-05-02 00:35:00,56.4,51.6,30.07,SSE,161,2.0,3.0,84,0.00,,,0.00,Wunderground v.1.15,2013-05-02 04:35:00,
2013-05-02 00:41:00,56.4,51.6,30.07,SSE,161,1.0,1.0,84,0.00,,,0.00,Wunderground v.1.15,2013-05-02 04:41:00,
2013-05-02 00:50:00,56.3,51.5,30.07,West,267,0.0,0.0,84,0.00,,,0.00,Wunderground v.1.15,2013-05-02 04:50:00,
2013-05-02 00:56:00,56.2,51.7,30.07,SSW,211,1.0,3.0,85,0.00,,,0.00,Wunderground v.1.15,2013-05-02 04:56:00,
2013-05-02 01:02:00,56.2,51.4,30.07,SSE,161,1.0,2.0,84,0.00,,,0.00,Wunderground v.1.15,2013-05-02 05:02:00,
2013-05-02 01:07:00,56.2,51.7,30.07,SSW,210,2.0,4.0,85,0.00,,,0.00,Wunderground v.1.15,2013-05-02 05:07:00,
2013-05-02 01:13:00,56.1,51.7,30.07,West,259,1.0,3.0,85,0.00,,,0.00,Wunderground v.1.15,2013-05-02 05:13:00,
2013-05-02 01:19:00,56.1,51.7,30.07,West,260,2.0,5.0,85,0.00,,,0.00,Wunderground v.1.15,2013-05-02 05:19:00,
2013-05-02 01:24:00,56.1,51.7,30.07,SSW,206,2.0,3.0,85,0.00,,,0.00,Wunderground v.1.15,2013-05-02 05:24:00,
2013-05-02 01:30:00,56.1,51.7,30.07,South,186,1.0,1.0,85,0.00,,,0.00,Wunderground v.1.15,2013-05-02 05:30:00,
2013-05-02 01:36:00,56.1,51.7,30.08,SSW,197,1.0,4.0,85,0.00,,,0.00,Wunderground v.1.15,2013-05-02 05:36:00,
2013-05-02 01:42:00,56.1,51.7,30.07,WNW,296,1.0,3.0,85,0.00,,,0.00,Wunderground v.1.15,2013-05-02 05:42:00,
2013-05-02 01:50:00,56.0,51.6,30.07,NNW,334,1.0,2.0,85,0.00,,,0.00,Wunderground v.1.15,2013-05-02 05:50:00,
2013-05-02 01:56:00,56.0,51.6,30.07,West,264,1.0,4.0,85,0.00,,,0.00,Wunderground v.1.15,2013-05-02 05:56:00,
2013-05-02 02:01:00,55.9,51.5,30.07,South,191,1.0,3.0,85,0.00,,,0.00,Wunderground v.1.15,2013-05-02 06:01:00,
2013-05-02 02:06:00,55.9,51.5,30.07,SW,225,2.0,3.0,85,0.00,,,0.00,Wunderground v.1.15,2013-05-02 06:06:00,
2013-05-02 02:12:00,55.8,51.4,30.06,SSW,211,2.0,4.0,85,0.00,,,0.00,Wunderground v.1.15,2013-05-02 06:12:00,
2013-05-02 02:18:00,55.8,51.4,30.06,SW,232,2.0,4.0,85,0.00,,,0.00,Wunderground v.1.15,2013-05-02 06:18:00,
2013-05-02 02:23:00,55.7,51.3,30.06,South,175,2.0,3.0,85,0.00,,,0.00,Wunderground v.1.15,2013-05-02 06:23:00,
2013-05-02 02:29:00,55.6,51.2,30.06,South,174,3.0,4.0,85,0.00,,,0.00,Wunderground v.1.15,2013-05-02 06:29:00,
2013-05-02 02:35:00,55.6,51.2,30.06,SSW,206,3.0,3.0,85,0.00,,,0.00,Wunderground v.1.15,2013-05-02 06:35:00,
2013-05-02 02:41:00,55.6,51.2,30.05,SSW,193,3.0,4.0,85,0.00,,,0.00,Wunderground v.1.15,2013-05-02 06:41:00,
2013-05-02 02:51:00,55.5,51.1,30.06,WSW,241,2.0,2.0,85,0.00,,,0.00,Wunderground v.1.15,2013-05-02 06:51:00,
2013-05-02 02:56:00,55.5,51.1,30.06,WNW,296,3.0,4.0,85,0.00,,,0.00,Wunderground v.1.15,2013-05-02 06:56:00,
2013-05-02 03:01:00,55.5,51.1,30.05,SSW,210,2.0,2.0,85,0.00,,,0.00,Wunderground v.1.15,2013-05-02 07:01:00,
2013-05-02 03:07:00,55.5,51.1,30.05,SW,219,1.0,5.0,85,0.00,,,0.00,Wunderground v.1.15,2013-05-02 07:07:00,
2013-05-02 03:13:00,55.5,51.1,30.05,SSW,200,2.0,2.0,85,0.00,,,0.00,Wunderground v.1.15,2013-05-02 07:13:00,
2013-05-02 03:19:00,55.4,51.3,30.05,NW,317,1.0,3.0,86,0.00,,,0.00,Wunderground v.1.15,2013-05-02 07:19:00,
2013-05-02 03:24:00,55.4,51.3,30.05,NW,319,1.0,2.0,86,0.00,,,0.00,Wunderground v.1.15,2013-05-02 07:24:00,
2013-05-02 03:30:00,55.4,51.0,30.05,SSW,200,1.0,2.0,85,0.00,,,0.00,Wunderground v.1.15,2013-05-02 07:30:00,
2013-05-02 03:36:00,55.4,51.0,30.05,WSW,241,1.0,3.0,85,0.00,,,0.00,Wunderground v.1.15,2013-05-02 07:36:00,
2013-05-02 03:42:00,55.4,51.0,30.04,WNW,293,2.0,2.0,85,0.00,,,0.00,Wunderground v.1.15,2013-05-02 07:42:00,
2013-05-02 03:51:00,55.4,51.0,30.04,SSW,194,2.0,2.0,85,0.00,,,0.00,Wunderground v.1.15,2013-05-02 07:51:00,
2013-05-02 03:56:00,55.3,50.9,30.05,WNW,294,2.0,6.0,85,0.00,,,0.00,Wunderground v.1.15,2013-05-02 07:56:00,
2013-05-02 04:01:00,55.4,51.0,30.05,WSW,257,1.0,2.0,85,0.00,,,0.00,Wunderground v.1.15,2013-05-02 08:01:00,
2013-05-02 04:07:00,55.3,50.9,30.04,West,267,2.0,2.0,85,0.00,,,0.00,Wunderground v.1.15,2013-05-02 08:07:00,
2013-05-02 04:13:00,55.4,51.0,30.04,SW,219,2.0,2.0,85,0.00,,,0.00,Wunderground v.1.15,2013-05-02 08:13:00,
2013-05-02 04:19:00,55.4,50.6,30.04,SSW,200,1.0,2.0,84,0.00,,,0.00,Wunderground v.1.15,2013-05-02 08:19:00,
2013-05-02 04:25:00,55.5,51.1,30.04,West,273,1.0,1.0,85,0.00,,,0.00,Wunderground v.1.15,2013-05-02 08:25:00,
2013-05-02 04:30:00,55.5,51.1,30.04,NW,308,1.0,1.0,85,0.00,,,0.00,Wunderground v.1.15,2013-05-02 08:30:00,
2013-05-02 04:36:00,55.5,51.1,30.03,West,259,1.0,6.0,85,0.00,,,0.00,Wunderground v.1.15,2013-05-02 08:36:00,
2013-05-02 04:41:00,55.5,50.7,30.04,WSW,238,2.0,5.0,84,0.00,,,0.00,Wunderground v.1.15,2013-05-02 08:41:00,
2013-05-02 04:51:00,55.6,50.8,30.04,WSW,254,1.0,4.0,84,0.00,,,0.00,Wunderground v.1.15,2013-05-02 08:51:00,
2013-05-02 04:56:00,55.6,50.8,30.04,NW,307,1.0,4.0,84,0.00,,,0.00,Wunderground v.1.15,2013-05-02 08:56:00,
2013-05-02 05:02:00,55.6,51.2,30.04,West,277,1.0,1.0,85,0.00,,,0.00,Wunderground v.1.15,2013-05-02 09:02:00,
2013-05-02 05:07:00,55.6,51.2,30.04,NNW,338,1.0,4.0,85,0.00,,,0.00,Wunderground v.1.15,2013-05-02 09:07:00,
2013-05-02 05:13:00,55.4,51.0,30.04,WSW,255,1.0,4.0,85,0.00,,,0.00,Wunderground v.1.15,2013-05-02 09:13:00,
2013-05-02 05:18:00,55.4,51.3,30.04,South,178,1.0,4.0,86,0.00,,,0.00,Wunderground v.1.15,2013-05-02 09:18:00,
2013-05-02 05:23:00,55.3,51.2,30.04,NE,43,1.0,3.0,86,0.00,,,0.00,Wunderground v.1.15,2013-05-02 09:23:00,
2013-05-02 05:29:00,55.3,51.5,30.03,South,188,2.0,3.0,87,0.00,,,0.00,Wunderground v.1.15,2013-05-02 09:29:00,
2013-05-02 05:35:00,55.2,51.4,30.04,SW,235,1.0,2.0,87,0.00,,,0.00,Wunderground v.1.15,2013-05-02 09:35:00,
2013-05-02 05:40:00,55.2,51.4,30.04,South,189,1.0,1.0,87,0.00,,,0.00,Wunderground v.1.15,2013-05-02 09:40:00,
2013-05-02 05:50:00,54.9,51.4,30.04,SSW,209,1.0,2.0,88,0.00,,,0.00,Wunderground v.1.15,2013-05-02 09:50:00,
2013-05-02 05:56:00,54.7,51.5,30.04,NNE,28,1.0,4.0,89,0.00,,,0.00,Wunderground v.1.15,2013-05-02 09:56:00,
2013-05-02 06:01:00,54.6,51.4,30.04,NW,309,1.0,5.0,89,0.00,,,0.00,Wunderground v.1.15,2013-05-02 10:01:00,
2013-05-02 06:07:00,54.5,51.3,30.04,West,273,1.0,7.0,89,0.00,,,0.00,Wunderground v.1.15,2013-05-02 10:07:00,
2013-05-02 06:13:00,54.4,51.5,30.05,SSW,200,1.0,3.0,90,0.00,,,0.00,Wunderground v.1.15,2013-05-02 10:13:00,
2013-05-02 06:19:00,54.3,51.4,30.05,WNW,289,2.0,3.0,90,0.00,,,0.00,Wunderground v.1.15,2013-05-02 10:19:00,
2013-05-02 06:25:00,54.3,51.4,30.05,WSW,256,1.0,3.0,90,0.00,,,0.00,Wunderground v.1.15,2013-05-02 10:25:00,
2013-05-02 06:30:00,54.4,51.5,30.05,NNE,13,1.0,1.0,90,0.00,,,0.00,Wunderground v.1.15,2013-05-02 10:30:00,
2013-05-02 06:35:00,54.4,51.5,30.05,West,267,1.0,5.0,90,0.00,,,0.00,Wunderground v.1.15,2013-05-02 10:35:00,
2013-05-02 06:41:00,54.5,51.6,30.05,West,267,1.0,1.0,90,0.00,,,0.00,Wunderground v.1.15,2013-05-02 10:41:00,
2013-05-02 06:50:00,54.5,51.6,30.05,SSE,164,1.0,1.0,90,0.00,,,0.00,Wunderground v.1.15,2013-05-02 10:50:00,
2013-05-02 06:56:00,54.5,51.6,30.05,WSW,240,1.0,4.0,90,0.00,,,0.00,Wunderground v.1.15,2013-05-02 10:56:00,
2013-05-02 07:01:00,54.5,51.6,30.05,ENE,67,1.0,1.0,90,0.00,,,0.00,Wunderground v.1.15,2013-05-02 11:01:00,
2013-05-02 07:07:00,54.5,51.6,30.05,SSW,194,1.0,4.0,90,0.00,,,0.00,Wunderground v.1.15,2013-05-02 11:07:00,
2013-05-02 07:13:00,54.5,51.6,30.05,WSW,254,1.0,4.0,90,0.00,,,0.00,Wunderground v.1.15,2013-05-02 11:13:00,
2013-05-02 07:19:00,54.5,51.9,30.05,WNW,294,1.0,4.0,91,0.00,,,0.00,Wunderground v.1.15,2013-05-02 11:19:00,
2013-05-02 07:50:00,54.5,51.9,30.05,SSW,213,1.0,1.0,91,0.00,,,0.00,Wunderground v.1.15,2013-05-02 11:50:00,
2013-05-02 07:56:00,54.6,52.0,30.06,NW,317,1.0,7.0,91,0.00,,,0.00,Wunderground v.1.15,2013-05-02 11:56:00,
2013-05-02 08:02:00,54.6,52.0,30.06,ESE,109,2.0,4.0,91,0.00,,,0.00,Wunderground v.1.15,2013-05-02 12:02:00,
2013-05-02 08:07:00,54.6,52.0,30.06,WNW,286,2.0,4.0,91,0.00,,,0.00,Wunderground v.1.15,2013-05-02 12:07:00,
2013-05-02 08:13:00,54.6,52.0,30.06,SSW,207,1.0,4.0,91,0.00,,,0.00,Wunderground v.1.15,2013-05-02 12:13:00,
2013-05-02 08:18:00,54.7,52.1,30.06,SW,226,2.0,4.0,91,0.00,,,0.00,Wunderground v.1.15,2013-05-02 12:18:00,
2013-05-02 08:23:00,54.7,52.4,30.06,SSW,210,2.0,3.0,92,0.00,,,0.00,Wunderground v.1.15,2013-05-02 12:23:00,
2013-05-02 08:29:00,54.7,52.4,30.06,SW,235,1.0,3.0,92,0.00,,,0.00,Wunderground v.1.15,2013-05-02 12:29:00,
2013-05-02 08:34:00,54.8,52.5,30.07,SW,229,1.0,3.0,92,0.00,,,0.00,Wunderground v.1.15,2013-05-02 12:34:00,
2013-05-02 08:40:00,54.8,52.5,30.07,West,280,1.0,1.0,92,0.00,,,0.00,Wunderground v.1.15,2013-05-02 12:40:00,
2013-05-02 08:45:00,54.8,52.2,30.07,SW,221,1.0,3.0,91,0.00,,,0.00,Wunderground v.1.15,2013-05-02 12:45:00,
2013-05-02 08:51:00,54.8,52.2,30.07,SSW,213,2.0,2.0,91,0.00,,,0.00,Wunderground v.1.15,2013-05-02 12:51:00,
2013-05-02 08:56:00,54.8,52.5,30.07,SW,223,2.0,6.0,92,0.00,,,0.00,Wunderground v.1.15,2013-05-02 12:56:00,
2013-05-02 09:02:00,54.7,52.4,30.07,WSW,245,2.0,3.0,92,0.00,,,0.00,Wunderground v.1.15,2013-05-02 13:02:00,
2013-05-02 09:08:00,54.8,52.5,30.07,WSW,237,2.0,5.0,92,0.00,,,0.00,Wunderground v.1.15,2013-05-02 13:08:00,
2013-05-02 09:14:00,54.8,52.5,30.08,SSW,208,2.0,3.0,92,0.00,,,0.00,Wunderground v.1.15,2013-05-02 13:14:00,
2013-05-02 09:19:00,54.9,52.6,30.08,SW,216,2.0,4.0,92,0.00,,,0.00,Wunderground v.1.15,2013-05-02 13:19:00,
2013-05-02 09:25:00,54.9,52.6,30.08,WNW,296,2.0,3.0,92,0.00,,,0.00,Wunderground v.1.15,2013-05-02 13:25:00,
2013-05-02 09:31:00,54.9,52.6,30.08,South,187,1.0,2.0,92,0.00,,,0.00,Wunderground v.1.15,2013-05-02 13:31:00,
2013-05-02 09:36:00,54.9,52.6,30.08,WNW,283,2.0,4.0,92,0.00,,,0.00,Wunderground v.1.15,2013-05-02 13:36:00,
2013-05-02 09:42:00,55.0,52.7,30.08,South,177,1.0,2.0,92,0.00,,,0.00,Wunderground v.1.15,2013-05-02 13:42:00,
2013-05-02 09:51:00,55.0,52.4,30.08,South,188,1.0,1.0,91,0.00,,,0.00,Wunderground v.1.15,2013-05-02 13:51:00,
2013-05-02 09:56:00,55.0,52.7,30.08,West,269,1.0,5.0,92,0.00,,,0.00,Wunderground v.1.15,2013-05-02 13:56:00,
2013-05-02 10:01:00,55.0,52.7,30.08,SW,218,1.0,1.0,92,0.00,,,0.00,Wunderground v.1.15,2013-05-02 14:01:00,
2013-05-02 10:07:00,54.9,52.6,30.08,SW,216,1.0,3.0,92,0.00,,,0.00,Wunderground v.1.15,2013-05-02 14:07:00,
2013-05-02 10:12:00,54.9,52.6,30.08,South,191,1.0,3.0,92,0.00,,,0.00,Wunderground v.1.15,2013-05-02 14:12:00,
2013-05-02 10:18:00,54.9,52.6,30.09,WSW,247,2.0,3.0,92,0.00,,,0.00,Wunderground v.1.15,2013-05-02 14:18:00,
2013-05-02 10:24:00,54.9,52.6,30.08,SW,227,2.0,2.0,92,0.00,,,0.00,Wunderground v.1.15,2013-05-02 14:24:00,
2013-05-02 10:30:00,54.9,52.6,30.09,NE,38,1.0,1.0,92,0.00,,,0.00,Wunderground v.1.15,2013-05-02 14:30:00,
2013-05-02 10:35:00,54.9,52.6,30.09,NNW,329,1.0,1.0,92,0.00,,,0.00,Wunderground v.1.15,2013-05-02 14:35:00,
2013-05-02 10:41:00,55.0,52.7,30.09,NNW,344,1.0,3.0,92,0.00,,,0.00,Wunderground v.1.15,2013-05-02 14:41:00,
2013-05-02 10:51:00,55.0,52.7,30.09,SW,223,2.0,2.0,92,0.00,,,0.00,Wunderground v.1.15,2013-05-02 14:51:00,
2013-05-02 10:56:00,55.1,52.8,30.09,West,279,2.0,4.0,92,0.00,,,0.00,Wunderground v.1.15,2013-05-02 14:56:00,
2013-05-02 11:02:00,55.3,53.0,30.08,West,275,2.0,2.0,92,0.00,,,0.00,Wunderground v.1.15,2013-05-02 15:02:00,
2013-05-02 11:07:00,55.3,53.0,30.09,South,191,1.0,4.0,92,0.00,,,0.00,Wunderground v.1.15,2013-05-02 15:07:00,
2013-05-02 11:13:00,55.4,53.1,30.09,ESE,108,2.0,4.0,92,0.00,,,0.00,Wunderground v.1.15,2013-05-02 15:13:00,
2013-05-02 11:18:00,55.4,53.1,30.08,South,180,1.0,4.0,92,0.00,,,0.00,Wunderground v.1.15,2013-05-02 15:18:00,
2013-05-02 11:23:00,55.4,53.1,30.09,East,92,1.0,4.0,92,0.00,,,0.00,Wunderground v.1.15,2013-05-02 15:23:00,
2013-05-02 11:29:00,55.4,53.1,30.09,WNW,302,1.0,4.0,92,0.00,,,0.00,Wunderground v.1.15,2013-05-02 15:29:00,
2013-05-02 11:35:00,55.4,53.1,30.09,West,269,1.0,3.0,92,0.00,,,0.00,Wunderground v.1.15,2013-05-02 15:35:00,
2013-05-02 11:40:00,55.3,53.0,30.09,NW,324,2.0,4.0,92,0.00,,,0.00,Wunderground v.1.15,2013-05-02 15:40:00,
2013-05-02 11:45:00,55.3,53.0,30.09,NW,309,2.0,4.0,92,0.00,,,0.00,Wunderground v.1.15,2013-05-02 15:45:00,
2013-05-02 11:51:00,55.4,53.1,30.09,WSW,242,2.0,2.0,92,0.00,,,0.00,Wunderground v.1.15,2013-05-02 15:51:00,
2013-05-02 11:56:00,55.5,53.2,30.09,WNW,283,1.0,8.0,92,0.00,,,0.00,Wunderground v.1.15,2013-05-02 15:56:00,
2013-05-02 12:01:00,55.7,53.4,30.09,WSW,247,1.0,4.0,92,0.00,,,0.00,Wunderground v.1.15,2013-05-02 16:01:00,
2013-05-02 12:07:00,55.8,53.5,30.09,WNW,284,1.0,4.0,92,0.00,,,0.00,Wunderground v.1.15,2013-05-02 16:07:00,
2013-05-02 12:13:00,55.9,53.3,30.09,WSW,249,2.0,3.0,91,0.00,,,0.00,Wunderground v.1.15,2013-05-02 16:13:00,
2013-05-02 12:19:00,56.0,53.4,30.09,SSW,213,3.0,6.0,91,0.00,,,0.00,Wunderground v.1.15,2013-05-02 16:19:00,
2013-05-02 12:25:00,56.1,53.2,30.09,NW,315,2.0,3.0,90,0.00,,,0.00,Wunderground v.1.15,2013-05-02 16:25:00,
2013-05-02 12:31:00,56.3,53.4,30.09,West,271,1.0,3.0,90,0.00,,,0.00,Wunderground v.1.15,2013-05-02 16:31:00,
2013-05-02 12:36:00,56.3,53.4,30.09,SW,232,1.0,3.0,90,0.00,,,0.00,Wunderground v.1.15,2013-05-02 16:36:00,
2013-05-02 12:42:00,56.4,53.5,30.09,ESE,122,1.0,5.0,90,0.00,,,0.00,Wunderground v.1.15,2013-05-02 16:42:00,
2013-05-02 12:51:00,56.4,53.2,30.09,NE,36,2.0,2.0,89,0.00,,,0.00,Wunderground v.1.15,2013-05-02 16:51:00,
2013-05-02 12:56:00,56.6,53.4,30.09,WSW,247,2.0,5.0,89,0.00,,,0.00,Wunderground v.1.15,2013-05-02 16:56:00,
2013-05-02 13:01:00,56.8,53.6,30.09,SW,225,2.0,5.0,89,0.00,,,0.00,Wunderground v.1.15,2013-05-02 17:01:00,
2013-05-02 13:07:00,57.2,53.4,30.09,SW,222,2.0,5.0,87,0.00,,,0.00,Wunderground v.1.15,2013-05-02 17:07:00,
2013-05-02 13:13:00,57.4,53.2,30.09,SSE,164,3.0,4.0,86,0.00,,,0.00,Wunderground v.1.15,2013-05-02 17:13:00,
2013-05-02 13:19:00,57.6,53.8,30.09,SW,219,2.0,7.0,87,0.00,,,0.00,Wunderground v.1.15,2013-05-02 17:19:00,
2013-05-02 13:25:00,57.6,53.4,30.09,SW,232,2.0,2.0,86,0.00,,,0.00,Wunderground v.1.15,2013-05-02 17:25:00,
2013-05-02 13:31:00,57.6,53.8,30.09,NW,319,2.0,2.0,87,0.00,,,0.00,Wunderground v.1.15,2013-05-02 17:31:00,
2013-05-02 13:37:00,57.7,53.5,30.09,WNW,300,2.0,5.0,86,0.00,,,0.00,Wunderground v.1.15,2013-05-02 17:37:00,
2013-05-02 13:42:00,57.7,53.5,30.09,SW,229,2.0,4.0,86,0.00,,,0.00,Wunderground v.1.15,2013-05-02 17:42:00,
2013-05-02 13:50:00,57.8,53.6,30.09,WSW,242,2.0,2.0,86,0.00,,,0.00,Wunderground v.1.15,2013-05-02 17:50:00,
2013-05-02 13:56:00,57.9,53.4,30.09,SSW,192,2.0,5.0,85,0.00,,,0.00,Wunderground v.1.15,2013-05-02 17:56:00,
2013-05-02 14:02:00,58.1,53.9,30.09,West,266,2.0,4.0,86,0.00,,,0.00,Wunderground v.1.15,2013-05-02 18:02:00,
2013-05-02 14:07:00,58.3,53.8,30.09,South,182,2.0,4.0,85,0.00,,,0.00,Wunderground v.1.15,2013-05-02 18:07:00,
2013-05-02 14:12:00,58.4,53.9,30.09,South,179,2.0,2.0,85,0.00,,,0.00,Wunderground v.1.15,2013-05-02 18:12:00,
2013-05-02 14:18:00,58.5,54.0,30.09,SSW,211,1.0,3.0,85,0.00,,,0.00,Wunderground v.1.15,2013-05-02 18:18:00,
2013-05-02 14:23:00,58.6,54.1,30.09,South,184,2.0,2.0,85,0.00,,,0.00,Wunderground v.1.15,2013-05-02 18:23:00,
2013-05-02 14:29:00,58.7,54.2,30.08,WNW,298,2.0,4.0,85,0.00,,,0.00,Wunderground v.1.15,2013-05-02 18:29:00,
2013-05-02 14:35:00,59.0,54.2,30.09,WSW,238,2.0,4.0,84,0.00,,,0.00,Wunderground v.1.15,2013-05-02 18:35:00,
2013-05-02 14:40:00,59.1,54.3,30.08,SW,227,2.0,2.0,84,0.00,,,0.00,Wunderground v.1.15,2013-05-02 18:40:00,
2013-05-02 14:50:00,59.2,54.4,30.08,East,83,2.0,2.0,84,0.00,,,0.00,Wunderground v.1.15,2013-05-02 18:50:00,
2013-05-02 14:56:00,59.2,54.4,30.08,ENE,74,2.0,6.0,84,0.00,,,0.00,Wunderground v.1.15,2013-05-02 18:56:00,
2013-05-02 15:01:00,59.3,54.5,30.08,SSW,200,2.0,2.0,84,0.00,,,0.00,Wunderground v.1.15,2013-05-02 19:01:00,
2013-05-02 15:06:00,59.2,54.0,30.08,South,182,2.0,5.0,83,0.00,,,0.00,Wunderground v.1.15,2013-05-02 19:06:00,
2013-05-02 15:12:00,59.6,54.4,30.08,South,187,2.0,3.0,83,0.00,,,0.00,Wunderground v.1.15,2013-05-02 19:12:00,
2013-05-02 15:18:00,59.9,54.4,30.08,NE,53,1.0,3.0,82,0.00,,,0.00,Wunderground v.1.15,2013-05-02 19:18:00,
2013-05-02 15:23:00,60.1,54.9,30.08,SW,217,2.0,2.0,83,0.00,,,0.00,Wunderground v.1.15,2013-05-02 19:23:00,
2013-05-02 15:28:00,60.3,54.8,30.08,SSW,196,1.0,3.0,82,0.00,,,0.00,Wunderground v.1.15,2013-05-02 19:28:00,
2013-05-02 15:34:00,60.3,55.1,30.07,South,180,1.0,8.0,83,0.00,,,0.00,Wunderground v.1.15,2013-05-02 19:34:00,
2013-05-02 15:40:00,60.4,54.9,30.07,West,275,1.0,1.0,82,0.00,,,0.00,Wunderground v.1.15,2013-05-02 19:40:00,
2013-05-02 15:50:00,61.2,55.0,30.06,SE,142,2.0,3.0,80,0.00,,,0.00,Wunderground v.1.15,2013-05-02 19:50:00,
2013-05-02 15:56:00,60.9,54.7,30.07,SW,218,3.0,5.0,80,0.00,,,0.00,Wunderground v.1.15,2013-05-02 19:56:00,
2013-05-02 16:01:00,60.5,54.3,30.07,SW,236,3.0,3.0,80,0.00,,,0.00,Wunderground v.1.15,2013-05-02 20:01:00,
2013-05-02 16:06:00,60.2,54.0,30.07,SSW,213,2.0,4.0,80,0.00,,,0.00,Wunderground v.1.15,2013-05-02 20:06:00,
2013-05-02 16:12:00,59.9,54.1,30.06,SW,221,3.0,4.0,81,0.00,,,0.00,Wunderground v.1.15,2013-05-02 20:12:00,
2013-05-02 16:18:00,59.8,54.0,30.06,SSE,166,3.0,5.0,81,0.00,,,0.00,Wunderground v.1.15,2013-05-02 20:18:00,
2013-05-02 16:24:00,59.8,54.0,30.06,SSE,152,2.0,4.0,81,0.00,,,0.00,Wunderground v.1.15,2013-05-02 20:24:00,
2013-05-02 16:30:00,59.9,54.1,30.05,South,177,2.0,2.0,81,0.00,,,0.00,Wunderground v.1.15,2013-05-02 20:30:00,
2013-05-02 16:36:00,60.3,54.1,30.05,South,178,2.0,4.0,80,0.00,,,0.00,Wunderground v.1.15,2013-05-02 20:36:00,
2013-05-02 16:42:00,60.6,54.0,30.05,NE,36,3.0,3.0,79,0.00,,,0.00,Wunderground v.1.15,2013-05-02 20:42:00,
2013-05-02 16:50:00,60.7,54.1,30.04,SE,141,2.0,2.0,79,0.00,,,0.00,Wunderground v.1.15,2013-05-02 20:50:00,
2013-05-02 16:56:00,60.7,53.8,30.04,SW,219,2.0,7.0,78,0.00,,,0.00,Wunderground v.1.15,2013-05-02 20:56:00,
2013-05-02 17:02:00,60.6,54.0,30.04,SSE,155,2.0,2.0,79,0.00,,,0.00,Wunderground v.1.15,2013-05-02 21:02:00,
2013-05-02 17:08:00,60.5,54.0,30.04,SW,230,2.0,4.0,79,0.00,,,0.00,Wunderground v.1.15,2013-05-02 21:08:00,
2013-05-02 17:13:00,60.4,54.2,30.04,South,173,2.0,2.0,80,0.00,,,0.00,Wunderground v.1.15,2013-05-02 21:13:00,
2013-05-02 17:19:00,60.3,53.8,30.04,WSW,257,2.0,2.0,79,0.00,,,0.00,Wunderground v.1.15,2013-05-02 21:19:00,
2013-05-02 17:24:00,60.2,53.7,30.05,NNW,329,2.0,4.0,79,0.00,,,0.00,Wunderground v.1.15,2013-05-02 21:24:00,
2013-05-02 17:29:00,60.1,53.9,30.05,SSE,162,2.0,4.0,80,0.00,,,0.00,Wunderground v.1.15,2013-05-02 21:29:00,
2013-05-02 17:35:00,59.8,53.6,30.05,SSW,193,2.0,3.0,80,0.00,,,0.00,Wunderground v.1.15,2013-05-02 21:35:00,
2013-05-02 17:40:00,59.7,53.5,30.05,NNE,28,2.0,2.0,80,0.00,,,0.00,Wunderground v.1.15,2013-05-02 21:40:00,
2013-05-02 17:50:00,59.7,53.9,30.05,SW,234,2.0,2.0,81,0.00,,,0.00,Wunderground v.1.15,2013-05-02 21:50:00,
2013-05-02 17:56:00,59.7,53.9,30.05,NW,322,1.0,5.0,81,0.00,,,0.00,Wunderground v.1.15,2013-05-02 21:56:00,
2013-05-02 18:01:00,59.8,54.0,30.05,NW,316,1.0,2.0,81,0.00,,,0.00,Wunderground v.1.15,2013-05-02 22:01:00,
2013-05-02 18:06:00,59.8,54.3,30.04,WNW,288,1.0,2.0,82,0.00,,,0.00,Wunderground v.1.15,2013-05-02 22:06:00,
2013-05-02 18:12:00,59.7,54.2,30.04,SSW,199,1.0,2.0,82,0.00,,,0.00,Wunderground v.1.15,2013-05-02 22:12:00,
2013-05-02 18:18:00,59.2,54.0,30.04,WNW,293,2.0,6.0,83,0.00,,,0.00,Wunderground v.1.15,2013-05-02 22:18:00,
2013-05-02 18:23:00,59.0,54.2,30.04,SSW,195,2.0,2.0,84,0.00,,,0.00,Wunderground v.1.15,2013-05-02 22:23:00,
2013-05-02 18:29:00,58.7,53.9,30.04,SSE,153,1.0,6.0,84,0.00,,,0.00,Wunderground v.1.15,2013-05-02 22:29:00,
2013-05-02 18:35:00,58.4,53.9,30.05,NW,316,2.0,4.0,85,0.00,,,0.00,Wunderground v.1.15,2013-05-02 22:35:00,
2013-05-02 18:41:00,58.1,53.9,30.05,SE,140,2.0,3.0,86,0.00,,,0.00,Wunderground v.1.15,2013-05-02 22:41:00,
2013-05-02 18:50:00,57.8,54.0,30.04,West,262,2.0,4.0,87,0.00,,,0.00,Wunderground v.1.15,2013-05-02 22:50:00,
2013-05-02 18:56:00,57.5,53.7,30.04,WSW,239,2.0,4.0,87,0.00,,,0.00,Wunderground v.1.15,2013-05-02 22:56:00,
2013-05-02 19:01:00,57.4,53.6,30.04,WNW,302,2.0,2.0,87,0.00,,,0.00,Wunderground v.1.15,2013-05-02 23:01:00,
2013-05-02 19:07:00,57.3,53.5,30.04,South,175,2.0,3.0,87,0.00,,,0.00,Wunderground v.1.15,2013-05-02 23:07:00,
2013-05-02 19:13:00,57.2,53.4,30.05,SSW,201,2.0,5.0,87,0.00,,,0.00,Wunderground v.1.15,2013-05-02 23:13:00,
2013-05-02 19:19:00,57.1,53.6,30.05,SW,225,2.0,5.0,88,0.00,,,0.00,Wunderground v.1.15,2013-05-02 23:19:00,
2013-05-02 19:24:00,56.9,53.7,30.05,NE,40,2.0,3.0,89,0.00,,,0.00,Wunderground v.1.15,2013-05-02 23:24:00,
2013-05-02 19:30:00,56.7,53.5,30.05,NW,326,1.0,1.0,89,0.00,,,0.00,Wunderground v.1.15,2013-05-02 23:30:00,
2013-05-02 19:36:00,56.5,53.3,30.06,SW,236,1.0,3.0,89,0.00,,,0.00,Wunderground v.1.15,2013-05-02 23:36:00,
2013-05-02 19:41:00,56.5,53.3,30.06,NNE,15,2.0,2.0,89,0.00,,,0.00,Wunderground v.1.15,2013-05-02 23:41:00,
2013-05-02 19:51:00,56.5,53.0,30.06,SE,135,2.0,2.0,88,0.00,,,0.00,Wunderground v.1.15,2013-05-02 23:51:00,
2013-05-02 19:56:00,56.5,53.0,30.06,West,277,2.0,5.0,88,0.00,,,0.00,Wunderground v.1.15,2013-05-02 23:56:00,
2013-05-02 20:02:00,56.5,53.0,30.06,SE,146,1.0,3.0,88,0.00,,,0.00,Wunderground v.1.15,2013-05-03 00:02:00,
2013-05-02 20:08:00,56.5,53.0,30.06,North,360,1.0,3.0,88,0.00,,,0.00,Wunderground v.1.15,2013-05-03 00:08:00,
2013-05-02 20:13:00,56.5,52.7,30.06,SSW,204,1.0,4.0,87,0.00,,,0.00,Wunderground v.1.15,2013-05-03 00:13:00,
2013-05-02 20:18:00,56.5,52.7,30.06,South,169,2.0,4.0,87,0.00,,,0.00,Wunderground v.1.15,2013-05-03 00:18:00,
2013-05-02 20:24:00,56.5,52.7,30.05,South,179,2.0,5.0,87,0.00,,,0.00,Wunderground v.1.15,2013-05-03 00:24:00,
2013-05-02 20:29:00,56.4,52.6,30.05,West,279,1.0,5.0,87,0.00,,,0.00,Wunderground v.1.15,2013-05-03 00:29:00,
2013-05-02 20:35:00,56.2,52.7,30.05,West,279,1.0,2.0,88,0.00,,,0.00,Wunderground v.1.15,2013-05-03 00:35:00,
2013-05-02 20:40:00,56.1,52.6,30.06,SW,217,1.0,2.0,88,0.00,,,0.00,Wunderground v.1.15,2013-05-03 00:40:00,
2013-05-02 20:51:00,56.1,52.6,30.06,SE,141,2.0,5.0,88,0.00,,,0.00,Wunderground v.1.15,2013-05-03 00:51:00,
2013-05-02 20:56:00,56.2,52.7,30.06,SSW,202,3.0,6.0,88,0.00,,,0.00,Wunderground v.1.15,2013-05-03 00:56:00,
2013-05-02 21:01:00,56.2,52.7,30.06,SW,217,3.0,4.0,88,0.00,,,0.00,Wunderground v.1.15,2013-05-03 01:01:00,
2013-05-02 21:07:00,56.2,52.7,30.07,SW,227,2.0,4.0,88,0.00,,,0.00,Wunderground v.1.15,2013-05-03 01:07:00,
2013-05-02 21:13:00,56.1,52.6,30.07,SW,222,2.0,3.0,88,0.00,,,0.00,Wunderground v.1.15,2013-05-03 01:13:00,
2013-05-02 21:18:00,56.0,52.5,30.07,SW,232,2.0,3.0,88,0.00,,,0.00,Wunderground v.1.15,2013-05-03 01:18:00,
2013-05-02 21:23:00,55.9,52.4,30.06,SW,233,2.0,2.0,88,0.00,,,0.00,Wunderground v.1.15,2013-05-03 01:23:00,
2013-05-02 21:28:00,55.8,52.3,30.07,West,279,1.0,3.0,88,0.00,,,0.00,Wunderground v.1.15,2013-05-03 01:28:00,
2013-05-02 21:34:00,55.8,52.3,30.07,South,174,1.0,2.0,88,0.00,,,0.00,Wunderground v.1.15,2013-05-03 01:34:00,
2013-05-02 21:40:00,55.7,52.2,30.07,WSW,239,1.0,1.0,88,0.00,,,0.00,Wunderground v.1.15,2013-05-03 01:40:00,
2013-05-02 21:50:00,55.7,52.5,30.07,SW,229,1.0,3.0,89,0.00,,,0.00,Wunderground v.1.15,2013-05-03 01:50:00,
2013-05-02 21:56:00,55.8,52.6,30.07,SW,225,1.0,7.0,89,0.00,,,0.00,Wunderground v.1.15,2013-05-03 01:56:00,
2013-05-02 22:01:00,55.9,52.7,30.07,SSW,204,1.0,1.0,89,0.00,,,0.00,Wunderground v.1.15,2013-05-03 02:01:00,
2013-05-02 22:06:00,56.0,52.8,30.07,SSW,195,1.0,1.0,89,0.00,,,0.00,Wunderground v.1.15,2013-05-03 02:06:00,
2013-05-02 22:12:00,56.0,52.8,30.08,SW,229,1.0,2.0,89,0.00,,,0.00,Wunderground v.1.15,2013-05-03 02:12:00,
2013-05-02 22:18:00,56.0,52.5,30.07,WNW,300,1.0,3.0,88,0.00,,,0.00,Wunderground v.1.15,2013-05-03 02:18:00,
2013-05-02 22:23:00,56.1,52.6,30.07,WNW,294,1.0,2.0,88,0.00,,,0.00,Wunderground v.1.15,2013-05-03 02:23:00,
2013-05-02 22:29:00,56.2,52.4,30.07,West,263,1.0,3.0,87,0.00,,,0.00,Wunderground v.1.15,2013-05-03 02:29:00,
2013-05-02 22:34:00,56.4,52.6,30.07,NW,317,2.0,4.0,87,0.00,,,0.00,Wunderground v.1.15,2013-05-03 02:34:00,
2013-05-02 22:40:00,56.5,52.7,30.07,West,268,2.0,2.0,87,0.00,,,0.00,Wunderground v.1.15,2013-05-03 02:40:00,
2013-05-02 22:45:00,56.5,52.7,30.07,West,268,1.0,2.0,87,0.00,,,0.00,Wunderground v.1.15,2013-05-03 02:45:00,
2013-05-02 22:51:00,56.4,52.6,30.07,NW,320,1.0,1.0,87,0.00,,,0.00,Wunderground v.1.15,2013-05-03 02:51:00,
2013-05-02 22:56:00,56.3,52.8,30.07,SSW,206,1.0,3.0,88,0.00,,,0.00,Wunderground v.1.15,2013-05-03 02:56:00,
2013-05-02 23:01:00,56.2,52.7,30.07,East,80,1.0,1.0,88,0.00,,,0.00,Wunderground v.1.15,2013-05-03 03:01:00,
2013-05-02 23:07:00,56.1,52.6,30.06,NNE,24,1.0,2.0,88,0.00,,,0.00,Wunderground v.1.15,2013-05-03 03:07:00,
2013-05-02 23:12:00,56.1,52.6,30.06,SW,219,1.0,4.0,88,0.00,,,0.00,Wunderground v.1.15,2013-05-03 03:12:00,
2013-05-02 23:18:00,56.1,52.6,30.06,WSW,253,1.0,4.0,88,0.00,,,0.00,Wunderground v.1.15,2013-05-03 03:18:00,
2013-05-02 23:23:00,56.1,52.6,30.06,WSW,253,1.0,1.0,88,0.00,,,0.00,Wunderground v.1.15,2013-05-03 03:23:00,
2013-05-02 23:29:00,56.1,52.6,30.06,NNW,339,1.0,2.0,88,0.00,,,0.00,Wunderground v.1.15,2013-05-03 03:29:00,
2013-05-02 23:35:00,55.9,52.7,30.06,West,279,1.0,3.0,89,0.00,,,0.00,Wunderground v.1.15,2013-05-03 03:35:00,
2013-05-02 23:41:00,55.6,52.4,30.05,NW,325,2.0,4.0,89,0.00,,,0.00,Wunderground v.1.15,2013-05-03 03:41:00,
2013-05-02 23:51:00,55.4,52.5,30.05,North,5,2.0,2.0,90,0.00,,,0.00,Wunderground v.1.15,2013-05-03 03:51:00,
2013-05-02 23:56:00,55.4,52.5,30.05,SW,236,1.0,4.0,90,0.00,,,0.00,Wunderground v.1.15,2013-05-03 03:56:00,